sat.trackr.live / text

‹ back to catalog

STARLINK-36660

NORAD 67848 · 2026-033AD

PAYLOAD ACTIVE UNKNOWN

§ Identity

Operator
Country
US
Launch date
2026-02-16
Launch site
AFETR
Launch vehicle
Mass (kg)
RCS (m²)

Purposes: comms

External: N2YO · Heavens-Above · Gunter

§ Orbital elements

Epoch: 2026-09-19T07:33:43.193664Z

Period
94.27 min
Inclination
43.0014°
Eccentricity
0.0001882
Mean motion
15.27577402 rev/d
Perigee alt
481.8 km
Apogee alt
484.3 km
Semi-major
6,861.2 km
B*
5.1939e-4
RAAN
253.8126°
Arg perigee
280.9264°
Mean anomaly
79.1375°
Rev number
3,428

§ Raw data

STARLINK-366601 67848U 26033AD  26262.31508326  .00014057  00000+0  51939-3 0  99992 67848  43.0014 253.8126 0001882 280.9264  79.1375 15.27577402 34283

JSON: /api/v1/satellites/67848 · /tle

For live sub-satellite position, see the globe view (requires WebGL).

§ Visibility from observer

Set your observer location to see the next 7 days of passes ≥ 10°. The values pass through the URL so the page stays shareable.

No JS? Fill the form by hand. The geolocation button needs JavaScript.